EW9154 Weather Reports


time (UTC)temp
C
wind
direction
speed
KPH
gust
KPH
rain 1hr
cm
rain 24hr
cm
rain mn
cm
humidity
%
barometer
mb
20260504160404 17 244 1.6 19.3 0.00 0.00 0.00 38 1012.3
20260504150617 16 221 0.0 12.9 0.00 0.00 0.00 41 1012.1
20260504150114 16 209 0.0 12.9 0.00 0.00 0.00 42 1012.0
20260504140921 15 284 1.6 16.1 0.00 0.00 0.00 41 1011.7
20260504140414 16 261 0.0 16.1 0.00 0.00 0.00 46 1011.6
20260504130749 15 263 1.6 14.5 0.00 0.00 0.00 50 1010.8
20260504130220 15 278 1.6 17.7 0.00 0.00 0.00 50 1010.8
20260504100518 13 227 4.8 24.1 0.00 0.00 0.00 45 1010.0
20260504081612 13 205 3.2 17.7 0.00 0.00 0.00 46 1011.7
20260504081113 13 201 1.6 17.7 0.00 0.00 0.00 46 1011.9
20260504080816 13 202 3.2 20.9 0.00 0.00 0.00 46 1012.1
20260504070339 13 202 3.2 17.7 0.00 0.00 0.00 45 1013.0
20260504050527 14 226 1.6 12.9 0.00 0.00 0.00 41 1015.4
20260504045757 14 200 1.6 11.3 0.00 0.00 0.00 41 1015.4
20260504045241 14 200 0.0 11.3 0.00 0.00 0.00 42 1015.5
20260504044738 14 200 0.0 6.4 0.00 0.00 0.00 42 1015.6
20260504044238 14 205 0.0 9.7 0.00 0.00 0.00 40 1015.7
20260504043718 14 204 0.0 9.7 0.00 0.00 0.00 39 1015.8
20260504043217 14 215 0.0 0.0 0.00 0.00 0.00 39 1015.9
20260504042712 15 211 0.0 0.0 0.00 0.00 0.00 39 1016.0
20260504042424 15 211 0.0 0.0 0.00 0.00 0.00 39 1016.1
20260504041632 15 202 0.0 0.0 0.00 0.00 0.00 39 1016.1
20260504041136 15 202 0.0 0.0 0.00 0.00 0.00 39 1016.3
20260504040614 15 202 0.0 0.0 0.00 0.00 0.00 39 1016.3
20260504040114 15 202 0.0 0.0 0.00 0.00 0.00 39 1016.4
20260504035618 15 201 0.0 0.0 0.00 0.00 0.00 38 1016.6
20260504035055 15 209 0.0 0.0 0.00 0.00 0.00 38 1016.6
20260504034825 15 209 0.0 0.0 0.00 0.00 0.00 38 1016.8
20260504034034 15 209 0.0 0.0 0.00 0.00 0.00 37 1016.8
20260504033511 15 212 0.0 0.0 0.00 0.00 0.00 36 1016.9
20260504033010 15 251 0.0 0.0 0.00 0.00 0.00 36 1017.0
20260504032514 15 252 0.0 0.0 0.00 0.00 0.00 36 1017.1
20260504031948 16 252 0.0 0.0 0.00 0.00 0.00 36 1017.1
20260504031421 16 252 0.0 0.0 0.00 0.00 0.00 35 1017.1
20260504030911 16 252 0.0 0.0 0.00 0.00 0.00 36 1017.2
20260504030408 16 252 0.0 0.0 0.00 0.00 0.00 36 1017.2
20260504025907 16 252 0.0 0.0 0.00 0.00 0.00 36 1017.3
20260504025405 16 252 0.0 0.0 0.00 0.00 0.00 36 1017.3
20260504024902 16 252 0.0 0.0 0.00 0.00 0.00 36 1017.3
20260504024400 16 252 0.0 0.0 0.00 0.00 0.00 36 1017.4
20260504023855 16 252 0.0 0.0 0.00 0.00 0.00 35 1017.4
20260504023356 16 252 0.0 0.0 0.00 0.00 0.00 36 1017.4
20260504022827 16 252 0.0 0.0 0.00 0.00 0.00 35 1017.4
20260504022317 16 252 0.0 0.0 0.00 0.00 0.00 35 1017.6
20260504021816 16 252 0.0 0.0 0.00 0.00 0.00 35 1017.4
20260504021532 17 252 0.0 0.0 0.00 0.00 0.00 34 1017.4
20260504020758 17 252 0.0 0.0 0.00 0.00 0.00 33 1017.4
20260504020255 17 252 0.0 0.0 0.00 0.00 0.00 33 1017.6
20260504020029 17 252 0.0 0.0 0.00 0.00 0.00 32 1017.4
20260504015246 18 252 0.0 0.0 0.00 0.00 0.00 31 1017.6
20260504014744 18 252 0.0 0.0 0.00 0.00 0.00 31 1017.6
20260504014222 18 252 0.0 0.0 0.00 0.00 0.00 31 1017.6
20260504013723 18 252 0.0 0.0 0.00 0.00 0.00 30 1017.7
20260504013454 18 252 0.0 0.0 0.00 0.00 0.00 30 1017.7
20260504012726 18 252 0.0 0.0 0.00 0.00 0.00 30 1017.8
20260504012206 18 252 0.0 0.0 0.00 0.00 0.00 30 1017.8
20260504011701 18 252 0.0 0.0 0.00 0.00 0.00 28 1017.8
20260504011135 19 252 0.0 0.0 0.00 0.00 0.00 28 1017.9
20260504010608 19 252 0.0 0.0 0.00 0.00 0.00 28 1017.8
20260504010039 19 252 0.0 0.0 0.00 0.00 0.00 27 1017.8
20260504005517 19 252 0.0 0.0 0.00 0.00 0.00 27 1017.9
20260504005004 19 252 0.0 0.0 0.00 0.00 0.00 26 1017.9
20260504004730 20 252 0.0 0.0 0.00 0.00 0.00 26 1018.0
20260504003936 20 252 0.0 0.0 0.00 0.00 0.00 27 1017.9
20260504003411 20 251 0.0 0.0 0.00 0.00 0.00 26 1017.9
20260504003406 20 244 0.0 0.0 0.00 0.00 0.00 26 1018.0
20260504002340 20 244 0.0 4.8 0.00 0.00 0.00 26 1018.0
20260504001820 20 257 0.0 4.8 0.00 0.00 0.00 26 1018.0
20260504001318 20 251 0.0 4.8 0.00 0.00 0.00 27 1018.1
20260504000750 20 245 0.0 12.9 0.00 0.00 0.00 26 1018.1
20260504000246 20 256 0.0 12.9 0.00 0.00 0.00 25 1018.1
20260503235722 21 261 0.0 9.7 0.00 0.00 0.00 25 1018.0
20260503235204 21 261 0.0 9.7 0.00 0.00 0.00 24 1018.0
20260503234939 21 282 0.0 8.0 0.00 0.00 0.00 24 1018.0
20260503234139 21 236 0.0 1.6 0.00 0.00 0.00 25 1018.1
20260503233638 21 236 0.0 8.0 0.00 0.00 0.00 25 1018.0
20260503233614 21 229 0.0 8.0 0.00 0.00 0.00 25 1018.1
20260503232815 21 269 0.0 6.4 0.00 0.00 0.00 25 1018.2
20260503232041 22 268 0.0 6.4 0.00 0.00 0.00 23 1018.3
20260503231522 22 265 0.0 8.0 0.00 0.00 0.00 23 1018.4
20260503230955 22 265 0.0 8.0 0.00 0.00 0.00 23 1018.4
20260503230430 22 234 0.0 0.0 0.00 0.00 0.00 22 1018.4
20260503225927 23 238 0.0 0.0 0.00 0.00 0.00 22 1018.4
20260503225654 23 232 0.0 4.8 0.00 0.00 0.00 23 1018.5
20260503224856 23 244 0.0 4.8 0.00 0.00 0.00 22 1018.5
20260503224838 23 242 0.0 4.8 0.00 0.00 0.00 21 1018.5
20260503223811 23 284 0.0 4.8 0.00 0.00 0.00 21 1018.6
20260503223242 23 234 0.0 3.2 0.00 0.00 0.00 21 1018.8
20260503222738 23 236 0.0 6.4 0.00 0.00 0.00 22 1018.7
20260503222212 23 242 0.0 6.4 0.00 0.00 0.00 21 1018.6
20260503221645 23 249 0.0 1.6 0.00 0.00 0.00 20 1018.6
20260503221127 23 266 0.0 12.9 0.00 0.00 0.00 21 1018.7
20260503220558 24 242 1.6 12.9 0.00 0.00 0.00 20 1018.7
20260503220034 23 254 1.6 11.3 0.00 0.00 0.00 21 1018.7
20260503215512 24 244 0.0 6.4 0.00 0.00 0.00 20 1018.7
20260503215012 25 233 0.0 1.6 0.00 0.00 0.00 22 1018.8
20260503214741 25 247 0.0 3.2 0.00 0.00 0.00 21 1018.8
20260503214014 24 253 0.0 11.3 0.00 0.00 0.00 22 1018.8
20260503213448 24 254 0.0 11.3 0.00 0.00 0.00 23 1018.8
20260503212919 24 288 0.0 11.3 0.00 0.00 0.00 23 1018.9
20260503212418 24 200 0.0 12.9 0.00 0.00 0.00 24 1018.8
20260503211849 24 251 0.0 12.9 0.00 0.00 0.00 23 1019.0
20260503211349 24 238 1.6 11.3 0.00 0.00 0.00 23 1019.0
20260503210826 24 227 0.0 8.0 0.00 0.00 0.00 22 1019.0
20260503210300 24 265 0.0 9.7 0.00 0.00 0.00 23 1019.1
20260503205731 24 263 0.0 9.7 0.00 0.00 0.00 23 1019.1
20260503205230 24 350 0.0 4.8 0.00 0.00 0.00 23 1019.1
20260503204702 25 262 0.0 6.4 0.00 0.00 0.00 23 1019.2
20260503204158 24 69 0.0 6.4 0.00 0.00 0.00 24 1019.2
20260503203637 25 251 0.0 4.8 0.00 0.00 0.00 23 1019.2
20260503203111 24 221 0.0 4.8 0.00 0.00 0.00 24 1019.3
20260503202609 24 296 0.0 9.7 0.00 0.00 0.00 25 1019.4
20260503202107 24 197 0.0 9.7 0.00 0.00 0.00 23 1019.4
20260503201605 24 265 0.0 3.2 0.00 0.00 0.00 26 1019.4
20260503201333 23 263 0.0 3.2 0.00 0.00 0.00 23 1019.5
20260503200559 23 343 0.0 1.6 0.00 0.00 0.00 25 1019.6
20260503195541 23 249 0.0 3.2 0.00 0.00 0.00 24 1019.8
20260503195041 23 331 0.0 3.2 0.00 0.00 0.00 25 1019.8
20260503194543 23 0 0.0 9.7 0.00 0.00 0.00 24 1019.8
20260503194538 23 265 0.0 9.7 0.00 0.00 0.00 25 1020.0
20260503193809 23 355 0.0 3.2 0.00 0.00 0.00 26 1020.0
20260503193034 23 342 0.0 3.2 0.00 0.00 0.00 26 1020.0
20260503192518 23 310 0.0 9.7 0.00 0.00 0.00 23 1020.0
20260503192019 23 246 0.0 3.2 0.00 0.00 0.00 23 1020.0
20260503191455 23 278 0.0 14.5 0.00 0.00 0.00 25 1020.0
20260503190942 23 229 0.0 6.4 0.00 0.00 0.00 25 1020.0
20260503190936 23 252 0.0 14.5 0.00 0.00 0.00 25 1019.8
20260503190418 23 236 0.0 3.2 0.00 0.00 0.00 27 1020.1
20260503185418 23 300 0.0 3.2 0.00 0.00 0.00 27 1020.1
20260503184852 23 331 0.0 3.2 0.00 0.00 0.00 28 1020.0
20260503184328 23 267 0.0 16.1 0.00 0.00 0.00 29 1020.1
20260503183801 23 190 0.0 16.1 0.00 0.00 0.00 26 1020.2
20260503183237 23 228 0.0 0.0 0.00 0.00 0.00 28 1020.2
20260503182713 23 300 0.0 1.6 0.00 0.00 0.00 29 1020.2
20260503182430 23 299 0.0 1.6 0.00 0.00 0.00 26 1020.3
20260503181656 23 267 0.0 0.0 0.00 0.00 0.00 28 1020.2
20260503181159 23 304 0.0 1.6 0.00 0.00 0.00 28 1020.4
20260503180651 23 294 0.0 1.6 0.00 0.00 0.00 28 1020.4
20260503180150 23 0 0.0 3.2 0.00 0.00 0.00 30 1020.4
20260503175649 23 149 0.0 3.2 0.00 0.00 0.00 30 1020.4
20260503175147 22 306 0.0 3.2 0.00 0.00 0.00 31 1020.4
20260503174648 22 273 0.0 3.2 0.00 0.00 0.00 32 1020.5
20260503174126 22 11 0.0 1.6 0.00 0.00 0.00 31 1020.5
20260503173624 22 278 0.0 1.6 0.00 0.00 0.00 32 1020.5
20260503173122 22 267 0.0 6.4 0.00 0.00 0.00 34 1020.5
20260503172620 22 303 0.0 8.0 0.00 0.00 0.00 30 1020.5
20260503172117 21 286 0.0 8.0 0.00 0.00 0.00 33 1020.5
20260503171615 22 229 0.0 4.8 0.00 0.00 0.00 34 1020.6
20260503171114 22 261 0.0 4.8 0.00 0.00 0.00 33 1020.5
20260503170825 22 334 0.0 4.8 0.00 0.00 0.00 36 1020.6
20260503170546 21 344 0.0 3.2 0.00 0.00 0.00 38 1020.6